This is the latest recevied weather packets stored in our database for station/object N6DZK. If no packets are shown the sender has not sent any weather packets the latest 10 day(s).
| Time | Temp. | Humidity | Pressure | Rain* | Wind** | Luminosity | Snow |
|---|---|---|---|---|---|---|---|
| 1777592123 | 26.67° C | 41% | 1012.5 hPa | 0 mm | - | 556 W/m² | - |
| 1777591821 | 26.67° C | 40% | 1012.5 hPa | 0 mm | - | 577 W/m² | - |
| 1777591516 | 26.67° C | 40% | 1012.3 hPa | 0 mm | - | 596 W/m² | - |
| 1777591213 | 26.67° C | 38% | 1012.4 hPa | 0 mm | - | 618 W/m² | - |
| 1777590908 | 26.67° C | 38% | 1012.5 hPa | 0 mm | - | 641 W/m² | - |
| 1777590604 | 26.67° C | 38% | 1012.7 hPa | 0 mm | - | 655 W/m² | - |
| 1777590301 | 26.67° C | 39% | 1012.5 hPa | 0 mm | - | 671 W/m² | - |
| 1777589998 | 26.67° C | 38% | 1012.4 hPa | 0 mm | - | 691 W/m² | - |
| 1777589694 | 27.22° C | 37% | 1012.6 hPa | 0 mm | - | 705 W/m² | - |
| 1777589392 | 27.78° C | 37% | 1012.5 hPa | 0 mm | - | 722 W/m² | - |
| 1777589089 | 27.78° C | 37% | 1012.6 hPa | 0 mm | - | 734 W/m² | - |
| 1777588784 | 27.22° C | 37% | 1012.6 hPa | 0 mm | - | 749 W/m² | - |
| 1777588480 | 27.78° C | 36% | 1012.8 hPa | 0 mm | - | 766 W/m² | - |
| 1777588175 | 27.22° C | 36% | 1012.7 hPa | 0 mm | - | 779 W/m² | - |
| 1777587871 | 27.22° C | 36% | 1012.8 hPa | 0 mm | - | 792 W/m² | - |
| 1777587567 | 27.22° C | 36% | 1012.7 hPa | 0 mm | - | 804 W/m² | - |
| 1777587262 | 27.78° C | 37% | 1012.8 hPa | 0 mm | - | 815 W/m² | - |
| 1777586958 | 27.78° C | 37% | 1012.9 hPa | 0 mm | - | 823 W/m² | - |
| 1777586654 | 27.78° C | 38% | 1013 hPa | 0 mm | - | 834 W/m² | - |
| 1777586350 | 27.78° C | 39% | 1013 hPa | 0 mm | - | 842 W/m² | - |
| 1777586049 | 27.78° C | 38% | 1013.1 hPa | 0 mm | - | 853 W/m² | - |
| 1777585748 | 27.78° C | 38% | 1013 hPa | 0 mm | - | 861 W/m² | - |
| 1777585448 | 27.22° C | 39% | 1013.2 hPa | 0 mm | - | 876 W/m² | - |
| 1777585144 | 27.22° C | 39% | 1013.1 hPa | 0 mm | - | 890 W/m² | - |
| 1777584839 | 27.78° C | 38% | 1013.4 hPa | 0 mm | - | 903 W/m² | - |
* Rain latest hour (hover to see other rain measurements)
** Current wind speed in m/s (hover to see current wind gust speed)